Weather History for Naples, Italy

Change the Weather History Date:

Tuesday, February 12, 2013

  Actual Average Record
Temperature  
Mean Temperature 48 °F -  
Max Temperature 53 °F 57 °F 62 °F (2001)
Min Temperature 44 °F 41 °F 33 °F (2003)
Degree Days  
Heating Degree Days 16    
Moisture  
Dew Point 43 °F    
Average Humidity 85    
Maximum Humidity 100    
Minimum Humidity 72    
Precipitation  
Precipitation 0.00 in 0.12 in - ()
Sea Level Pressure  
Sea Level Pressure 29.62 in    
Wind  
Wind Speed 8 mph ()    
Max Wind Speed 17 mph    
Max Gust Speed -    
Visibility 5.2 miles    
Events Rain    
Averages and records for this station are not official NWS values.
T = Trace of Precipitation, MM = Missing Value Source: Averaged Metar Reports

Daily Weather History Graph

Daily Weather History Graph

Search for Another Location

Airport:

Trip Planner

Search our weather history database for the weather conditions in past years. The results will help you decide how hot, cold, wet, or windy it might be!

Date:

Astronomy

Feb. 12, 2013 Rise Set
Actual Time 7:00 AM CET 5:33 PM CET
Civil Twilight 6:32 AM CET 6:02 PM CET
Nautical Twilight 6:00 AM CET 6:34 PM CET
Astronomical Twilight 5:28 AM CET 7:06 PM CET
Moon 7:47 AM CET (2/12) 8:17 PM CET (2/12)
Length of Visible Light 11h 29m
Length of Day
10h 32m
Waxing Crescent, 6% of the Moon is Illuminated
Feb 12
Waxing Crescent
Feb 17
First Quarter
Feb 25
Full
Mar 4
Last Quarter
Mar 11
New

Hourly Weather History & Observations

Time (CET) Temp. Windchill Dew Point Humidity Pressure Visibility Wind Dir Wind Speed Gust Speed Precip Events Conditions
12:20 AM 50.0 °F - 46.4 °F 87% 29.62 in 3.7 mi South 10.4 mph - N/A Rain Rain
12:50 AM 51.8 °F - 48.2 °F 88% 29.62 in 5.0 mi South 9.2 mph - N/A Rain Light Rain
1:20 AM 51.8 °F - 48.2 °F 88% 29.59 in 5.0 mi South 10.4 mph - N/A Rain Light Rain
1:50 AM 53.6 °F - 48.2 °F 82% 29.59 in 5.0 mi SSW 12.7 mph - N/A Rain Light Rain
2:20 AM 51.8 °F - 46.4 °F 82% 29.59 in 5.0 mi SSW 11.5 mph - N/A Rain Light Rain
3:20 AM 53.6 °F - 44.6 °F 72% 29.56 in 6.2 mi SSW 12.7 mph - N/A   Mostly Cloudy
3:50 AM 51.8 °F - 44.6 °F 76% 29.56 in 6.2 mi WSW 17.3 mph - N/A   Mostly Cloudy
4:20 AM 51.8 °F - 44.6 °F 76% 29.56 in 6.2 mi WSW 12.7 mph - N/A   Mostly Cloudy
4:50 AM 51.8 °F - 46.4 °F 82% 29.56 in 5.0 mi SW 6.9 mph - N/A Rain Light Rain
5:20 AM 53.6 °F - 44.6 °F 72% 29.56 in 3.1 mi SW 9.2 mph - N/A Rain Light Rain
5:50 AM 50.0 °F - 42.8 °F 76% 29.59 in 3.1 mi West 10.4 mph - N/A Rain Light Rain
6:20 AM 50.0 °F - 46.4 °F 87% 29.59 in 3.7 mi SSW 6.9 mph - N/A Rain Light Rain
6:50 AM 48.2 °F - 44.6 °F 87% 29.59 in 6.2 mi SSE 4.6 mph - N/A Rain Light Rain
7:20 AM 50.0 °F - 46.4 °F 87% 29.59 in 5.0 mi South 5.8 mph - N/A   Drizzle
7:50 AM 48.2 °F - 44.6 °F 87% 29.59 in 3.7 mi NW 3.5 mph - N/A   Drizzle
8:20 AM 48.2 °F - 44.6 °F 87% 29.62 in 5.0 mi SSE 5.8 mph - N/A   Drizzle
8:50 AM 46.4 °F 45.2 °F 44.6 °F 93% 29.62 in 3.1 mi South 3.5 mph - N/A Rain Rain
9:20 AM 46.4 °F 45.2 °F 44.6 °F 93% 29.62 in 3.1 mi ESE 3.5 mph - N/A Rain Rain
9:50 AM 46.4 °F - 44.6 °F 93% 29.65 in 3.1 mi Variable 2.3 mph - N/A Rain Rain
10:20 AM 46.4 °F 43.5 °F 44.6 °F 93% 29.65 in 1.9 mi NNE 5.8 mph - N/A Rain Rain
10:50 AM 46.4 °F 45.2 °F 44.6 °F 93% 29.68 in 3.1 mi NNE 3.5 mph - N/A Rain Rain
11:20 AM 46.4 °F 42.9 °F 44.6 °F 93% 29.65 in 3.7 mi East 6.9 mph - N/A Rain Rain
11:50 AM 44.6 °F 40.2 °F 44.6 °F 100% 29.65 in 3.7 mi East 8.1 mph - N/A Rain Rain
12:20 PM 46.4 °F 42.4 °F 42.8 °F 87% 29.65 in 3.7 mi East 8.1 mph - N/A Rain Light Rain
12:50 PM 46.4 °F 42.4 °F 42.8 °F 87% 29.65 in 6.2 mi East 8.1 mph - N/A Rain Light Rain
1:20 PM 46.4 °F 41.9 °F 42.8 °F 87% 29.65 in 6.2 mi East 9.2 mph - N/A Rain Light Rain
1:50 PM 44.6 °F 39.7 °F 42.8 °F 93% 29.62 in 6.2 mi East 9.2 mph - N/A Rain Light Rain
2:20 PM 46.4 °F 42.4 °F 42.8 °F 87% 29.62 in 6.2 mi East 8.1 mph - N/A Rain Light Rain
2:50 PM 46.4 °F 43.5 °F 41.0 °F 81% 29.62 in 6.2 mi East 5.8 mph - N/A Rain Light Rain
3:20 PM 46.4 °F 41.5 °F 42.8 °F 87% 29.62 in 6.2 mi ESE 10.4 mph - N/A Rain Light Rain
3:50 PM 46.4 °F 43.5 °F 41.0 °F 81% 29.62 in 6.2 mi North 5.8 mph - N/A Rain Light Rain
4:20 PM 46.4 °F 42.4 °F 41.0 °F 81% 29.62 in 6.2 mi North 8.1 mph - N/A   Light Drizzle
4:50 PM 46.4 °F 42.4 °F 41.0 °F 81% 29.62 in 6.2 mi NE 8.1 mph - N/A   Light Drizzle
5:20 PM 44.6 °F 39.2 °F 41.0 °F 87% 29.62 in 6.2 mi North 10.4 mph - N/A   Light Drizzle
5:50 PM 44.6 °F 40.2 °F 41.0 °F 87% 29.62 in 6.2 mi NE 8.1 mph - N/A   Mostly Cloudy
6:50 PM 44.6 °F 42.2 °F 41.0 °F 87% 29.62 in 6.2 mi North 4.6 mph - N/A   Mostly Cloudy
7:20 PM 44.6 °F 40.7 °F 39.2 °F 81% 29.62 in 6.2 mi North 6.9 mph - N/A   Mostly Cloudy
7:50 PM 44.6 °F 41.4 °F 39.2 °F 81% 29.62 in 6.2 mi North 5.8 mph - N/A   Mostly Cloudy
8:20 PM 44.6 °F 43.1 °F 39.2 °F 81% 29.62 in 6.2 mi NNW 3.5 mph - N/A   Mostly Cloudy
8:50 PM 44.6 °F 41.4 °F 39.2 °F 81% 29.65 in 6.2 mi NNW 5.8 mph - N/A   Mostly Cloudy
9:20 PM 44.6 °F 41.4 °F 39.2 °F 81% 29.65 in 6.2 mi North 5.8 mph - N/A   Mostly Cloudy
9:50 PM 44.6 °F 41.4 °F 39.2 °F 81% 29.65 in 6.2 mi North 5.8 mph - N/A   Mostly Cloudy
10:20 PM 44.6 °F 42.2 °F 39.2 °F 81% 29.65 in 6.2 mi North 4.6 mph - N/A   Scattered Clouds
10:50 PM 44.6 °F 41.4 °F 39.2 °F 81% 29.65 in 6.2 mi NNW 5.8 mph - N/A   Scattered Clouds
11:20 PM 44.6 °F 42.2 °F 39.2 °F 81% 29.65 in 6.2 mi NNW 4.6 mph - N/A   Scattered Clouds
11:50 PM 44.6 °F 41.4 °F 39.2 °F 81% 29.65 in 6.2 mi NNW 5.8 mph - N/A   Light Drizzle